| time (UTC) | temp F | wind direction | speed MPH | gust MPH | rain 1hr in | rain 24hr in | rain mn in | humidity % | barometer mb |
| 20260507003049 | 0 | 42 | 9.0 | 14.0 | 0.00 | 0.00 | 0.00 | 1020.6 | |
| 20260507001549 | 0 | 43 | 8.0 | 13.0 | 0.00 | 0.00 | 0.00 | 1020.5 | |
| 20260507000049 | 0 | 71 | 6.0 | 15.0 | 0.00 | 0.00 | 0.00 | 1020.6 | |
| 20260506234557 | 0 | 32 | 7.0 | 12.0 | 0.00 | 0.00 | 0.00 | 1020.7 | |
| 20260506233052 | 0 | 44 | 9.0 | 15.0 | 0.00 | 0.00 | 0.00 | 1020.8 | |
| 20260506231554 | 0 | 55 | 8.0 | 14.0 | 0.00 | 0.00 | 0.00 | 1020.9 | |
| 20260506230048 | 0 | 43 | 8.0 | 16.0 | 0.00 | 0.00 | 0.00 | 1020.9 | |
| 20260506224548 | 0 | 50 | 9.0 | 16.0 | 0.00 | 0.00 | 0.00 | 1021.0 | |
| 20260506223047 | 0 | 64 | 8.0 | 16.0 | 0.00 | 0.00 | 0.00 | 1020.9 | |
| 20260506221547 | 0 | 42 | 8.0 | 15.0 | 0.00 | 0.00 | 0.00 | 1021.0 | |
| 20260506220051 | 0 | 34 | 8.0 | 12.0 | 0.00 | 0.00 | 0.00 | 1021.1 | |
| 20260506214548 | 0 | 50 | 8.0 | 14.0 | 0.00 | 0.00 | 0.00 | 1021.0 | |
| 20260506213047 | 0 | 17 | 6.0 | 14.0 | 0.00 | 0.00 | 0.00 | 1021.1 | |
| 20260506211541 | 0 | 55 | 7.0 | 12.0 | 0.00 | 0.00 | 0.00 | 1021.1 | |
| 20260506210037 | 0 | 56 | 9.0 | 14.0 | 0.00 | 0.00 | 0.00 | 1021.1 | |
| 20260506204535 | 0 | 38 | 9.0 | 14.0 | 0.00 | 0.00 | 0.00 | 1021.1 | |
| 20260506203037 | 0 | 60 | 8.0 | 16.0 | 0.00 | 0.00 | 0.00 | 1021.0 | |
| 20260506201524 | 0 | 59 | 8.0 | 13.0 | 0.00 | 0.00 | 0.00 | 1021.0 | |
| 20260506200019 | 0 | 44 | 9.0 | 14.0 | 0.00 | 0.00 | 0.00 | 1020.9 | |
| 20260506194517 | 0 | 57 | 9.0 | 15.0 | 0.00 | 0.00 | 0.00 | 1020.8 | |
| 20260506193013 | 0 | 40 | 5.0 | 14.0 | 0.00 | 0.00 | 0.00 | 1020.8 | |
| 20260506191506 | 0 | 53 | 9.0 | 14.0 | 0.00 | 0.00 | 0.00 | 1020.7 | |
| 20260506190003 | 0 | 36 | 9.0 | 14.0 | 0.00 | 0.00 | 0.00 | 1020.6 | |
| 20260506184558 | 0 | 42 | 6.0 | 13.0 | 0.00 | 0.00 | 0.00 | 1020.7 | |
| 20260506183056 | 0 | 63 | 9.0 | 14.0 | 0.00 | 0.00 | 0.00 | 1020.6 | |
| 20260506181552 | 0 | 42 | 6.0 | 12.0 | 0.00 | 0.00 | 0.00 | 1020.6 | |
| 20260506180048 | 0 | 44 | 9.0 | 15.0 | 0.00 | 0.00 | 0.00 | 1020.5 | |
| 20260506174543 | 0 | 38 | 7.0 | 14.0 | 0.00 | 0.00 | 0.00 | 1020.3 | |
| 20260506173104 | 0 | 67 | 9.0 | 13.0 | 0.00 | 0.00 | 0.00 | 1020.3 | |
| 20260506171534 | 0 | 52 | 11.0 | 15.0 | 0.00 | 0.00 | 0.00 | 1020.2 | |
| 20260506170031 | 0 | 55 | 10.0 | 18.0 | 0.00 | 0.00 | 0.00 | 1020.3 | |
| 20260506164526 | 0 | 48 | 7.0 | 13.0 | 0.00 | 0.00 | 0.00 | 1020.4 | |
| 20260506163030 | 0 | 41 | 10.0 | 15.0 | 0.00 | 0.00 | 0.00 | 1020.3 | |
| 20260506161518 | 0 | 56 | 6.0 | 12.0 | 0.00 | 0.00 | 0.00 | 1020.2 | |
| 20260506160016 | 0 | 52 | 6.0 | 11.0 | 0.00 | 0.00 | 0.00 | 1020.0 | |
| 20260506154511 | 0 | 52 | 5.0 | 11.0 | 0.00 | 0.00 | 0.00 | 1020.1 | |
| 20260506153009 | 0 | 45 | 5.0 | 10.0 | 0.00 | 0.00 | 0.00 | 1020.1 | |
| 20260506151505 | 0 | 56 | 5.0 | 11.0 | 0.00 | 0.00 | 0.00 | 1020.0 | |
| 20260506144557 | 0 | 56 | 3.0 | 8.0 | 0.00 | 0.00 | 0.00 | 1019.9 | |
| 20260506143052 | 0 | 57 | 4.0 | 6.0 | 0.00 | 0.00 | 0.00 | 1020.0 | |
| 20260506141548 | 0 | 27 | 3.0 | 5.0 | 0.00 | 0.00 | 0.00 | 1019.8 | |
| 20260506140044 | 0 | 28 | 3.0 | 6.0 | 0.00 | 0.00 | 0.00 | 1019.5 | |
| 20260506134540 | 0 | 60 | 2.0 | 5.0 | 0.00 | 0.00 | 0.00 | 1019.6 | |
| 20260506133039 | 0 | 64 | 3.0 | 6.0 | 0.00 | 0.00 | 0.00 | 1019.6 | |
| 20260506131544 | 0 | 53 | 4.0 | 9.0 | 0.00 | 0.00 | 0.00 | 1019.5 | |
| 20260506130029 | 0 | 66 | 5.0 | 10.0 | 0.00 | 0.00 | 0.00 | 1019.5 | |
| 20260506124523 | 0 | 44 | 3.0 | 7.0 | 0.00 | 0.00 | 0.00 | 1019.2 | |
| 20260506123021 | 0 | 42 | 5.0 | 11.0 | 0.00 | 0.00 | 0.00 | 1019.1 | |
| 20260506121516 | 0 | 50 | 7.0 | 12.0 | 0.00 | 0.00 | 0.00 | 1019.0 | |
| 20260506120018 | 0 | 27 | 6.0 | 10.0 | 0.00 | 0.00 | 0.00 | 1018.9 | |
| 20260506114508 | 0 | 62 | 5.0 | 10.0 | 0.00 | 0.00 | 0.00 | 1018.8 | |
| 20260506113006 | 0 | 72 | 5.0 | 10.0 | 0.00 | 0.00 | 0.00 | 1018.7 | |
| 20260506111600 | 0 | 59 | 4.0 | 11.0 | 0.00 | 0.00 | 0.00 | 1018.7 | |
| 20260506110101 | 0 | 29 | 4.0 | 9.0 | 0.00 | 0.00 | 0.00 | 1018.6 | |
| 20260506104556 | 0 | 57 | 5.0 | 10.0 | 0.00 | 0.00 | 0.00 | 1018.5 | |
| 20260506103056 | 0 | 46 | 5.0 | 9.0 | 0.00 | 0.00 | 0.00 | 1018.4 | |
| 20260506101556 | 0 | 42 | 4.0 | 11.0 | 0.00 | 0.00 | 0.00 | 1018.3 | |
| 20260506100100 | 0 | 36 | 3.0 | 9.0 | 0.00 | 0.00 | 0.00 | 1018.2 | |
| 20260506094537 | 0 | 59 | 5.0 | 10.0 | 0.00 | 0.00 | 0.00 | 1018.1 | |
| 20260506093041 | 0 | 59 | 4.0 | 7.0 | 0.00 | 0.00 | 0.00 | 1018.0 | |
| 20260506091534 | 0 | 42 | 4.0 | 9.0 | 0.00 | 0.00 | 0.00 | 1017.9 | |
| 20260506090027 | 0 | 58 | 4.0 | 9.0 | 0.00 | 0.00 | 0.00 | 1017.9 | |
| 20260506084520 | 0 | 55 | 5.0 | 8.0 | 0.00 | 0.00 | 0.00 | 1018.0 | |
| 20260506083019 | 0 | 47 | 4.0 | 9.0 | 0.00 | 0.00 | 0.00 | 1017.8 | |
| 20260506081514 | 0 | 336 | 2.0 | 3.0 | 0.00 | 0.00 | 0.00 | 1017.6 | |
| 20260506073001 | 0 | 48 | 1.0 | 6.0 | 0.00 | 0.00 | 0.00 | 1017.3 | |
| 20260506071600 | 0 | 46 | 3.0 | 9.0 | 0.00 | 0.00 | 0.00 | 1017.2 | |
| 20260506061547 | 0 | 49 | 3.0 | 6.0 | 0.00 | 0.00 | 0.00 | 1016.7 | |
| 20260506044638 | 0 | 30 | 0.0 | 4.0 | 0.00 | 0.00 | 0.00 | 1016.4 | |
| 20260506043046 | 0 | 65 | 1.0 | 5.0 | 0.00 | 0.00 | 0.00 | 1016.3 | |
| 20260506041557 | 0 | 12 | 1.0 | 6.0 | 0.00 | 0.00 | 0.00 | 1016.1 | |
| 20260506040044 | 0 | 355 | 1.0 | 4.0 | 0.00 | 0.00 | 0.00 | 1016.0 | |
| 20260506034619 | 0 | 302 | 0.0 | 2.0 | 0.00 | 0.00 | 0.00 | 1015.7 | |
| 20260506033044 | 0 | 301 | 0.0 | 4.0 | 0.00 | 0.00 | 0.00 | 1015.5 | |
| 20260506031544 | 0 | 289 | 0.0 | 3.0 | 0.00 | 0.00 | 0.00 | 1015.3 | |
| 20260506030043 | 0 | 292 | 0.0 | 2.0 | 0.00 | 0.00 | 0.00 | 1015.2 | |
| 20260506024543 | 0 | 328 | 2.0 | 3.0 | 0.00 | 0.00 | 0.00 | 1015.3 | |
| 20260506023102 | 0 | 306 | 2.0 | 8.0 | 0.00 | 0.00 | 0.00 | 1015.2 | |
| 20260506021542 | 0 | 343 | 2.0 | 5.0 | 0.00 | 0.00 | 0.00 | 1015.1 | |
| 20260506020046 | 0 | 5 | 2.0 | 5.0 | 0.00 | 0.00 | 0.00 | 1015.1 | |
| 20260506014641 | 0 | 39 | 2.0 | 6.0 | 0.00 | 0.00 | 0.00 | 1015.1 | |
| 20260506013041 | 0 | 348 | 2.0 | 6.0 | 0.00 | 0.00 | 0.00 | 1015.0 | |
| 20260506011540 | 0 | 40 | 3.0 | 7.0 | 0.00 | 0.00 | 0.00 | 1015.0 | |
| 20260506010045 | 0 | 44 | 3.0 | 7.0 | 0.00 | 0.00 | 0.00 | 1015.0 | |
| 20260506004559 | 0 | 43 | 5.0 | 7.0 | 0.00 | 0.00 | 0.00 | 1015.1 |